Terminal Aerodrome Forecast
Issued by NWS

Home | Current Version | Previous Version | Graphics & Text | Print | Product List | Glossary On
Versions: 1 2 3 4 5 6 7 8 9 10 11 12 13 14 15 16 17 18 19 20 21
000
FTUS43 KGRB 241724
TAFCWA
TAF
KCWA 241724Z 2418/2518 12008KT P6SM BKN020 OVC035
     FM242200 13008KT P6SM BKN030
     FM250600 12007KT P6SM OVC025
     FM251000 13007KT P6SM VCSH SCT010 OVC025
      TEMPO 2510/2514 5SM -SHRA BR BKN010
     FM251400 15008KT 4SM -SHRA BR SCT003 OVC007
      TEMPO 2514/2518 2SM TSRA BR BKN003CB=

USA.gov is the U.S. government's official web portal to all federal, state and local government web resources and services.